DALIAN/DAIREN/LUDA current weather conditions

sailwx.info

Wind from 340 at 15 knots gusting 25

Air temperature -10.0° C
Visibility: greater than 5.4 NM
Dewpoint -18.0° C

Last reported at 2018-Jan-22 06:00 UTC.
Time now 2018-Jan-22 06:44 UTC

Location: N 38°58' E 121°32'.
View on Google Maps.

See reports from other nearby stations

  
Tides and Currents Weather Stations Pressure Air Temp Water Temp Dewpoint Dewpoint Depression Visibility Wind Speed Wind Dir Waves Ship Positions
date/time (UTC)wind fromknots sea level pressurealtimeterstation pressurevisibilityair tempwater tempwave heightnotes
2018-Jan-22 06:00 340 15 gusting 25 5.4-10.0
2018-Jan-22 05:30 350 15 5.4-10.0
2018-Jan-22 05:00 010 15 5.4-10.0
2018-Jan-22 04:30 010 15 gusting 25 5.4-10.0
2018-Jan-22 04:00 350 17 5.4-10.0
2018-Jan-22 03:30 360 15 5.4-10.0
2018-Jan-22 03:00 350 17 5.4-10.0
2018-Jan-22 02:30 360 15 3.2-11.0 Light snow.
2018-Jan-22 02:00 360 13 gusting 25 1.3-11.0 Light snow. Mist.
2018-Jan-22 01:30 360 13 0.9-11.0 Light snow. Mist.
2018-Jan-22 01:00 350 11 0.6-11.0 Light snow. Mist.
2018-Jan-22 00:30 360 11 0.6-11.0 Light snow. Mist.
2018-Jan-22 00:00 360 13 gusting 23 0.6-11.0 Light snow. Mist.
2018-Jan-21 23:30 360 15 gusting 25 0.6-11.0 Light snow. Mist.
2018-Jan-21 23:00 350 13 gusting 25 0.9-11.0 Light snow. Mist.
2018-Jan-21 22:30 360 9 1.6-10.0 Light snow. Mist.
2018-Jan-21 22:00 360 11 1.3-11.0 Light snow. Mist.
2018-Jan-21 21:30 360 13 1.3-10.0 Light snow. Mist.
2018-Jan-21 21:00 360 13 1.1-10.0 Light snow. Mist.
2018-Jan-21 20:30 360 13 1.1-9.0 Light snow. Mist.
2018-Jan-21 20:00 350 9 1.1-9.0 Light snow. Mist.
2018-Jan-21 19:30 360 13 1.1-8.0 Light snow. Mist.
2018-Jan-21 19:00 360 9 1.1-7.0 Light snow. Mist.
2018-Jan-21 18:30 360 11 1.6-7.0 Mist.
2018-Jan-21 18:00 010 9 5.4-6.0
2018-Jan-21 17:30 360 9 5.4-5.0
2018-Jan-21 17:00 010 7 5.4-4.0
2018-Jan-21 16:30 010 3 5.4-3.0
2018-Jan-21 16:00 5.4-3.0
2018-Jan-21 15:30 060 5 5.4-3.0
2018-Jan-21 15:00 020 5 5.4-3.0
2018-Jan-21 14:30 030 5 5.4-3.0
2018-Jan-21 14:00 050 7 5.4-3.0
2018-Jan-21 13:30 050 5 5.4-3.0
2018-Jan-21 13:00 060 5 5.4-3.0
2018-Jan-21 12:30 080 5 5.4-3.0
2018-Jan-21 12:00 070 5 5.4-3.0
2018-Jan-21 11:30 100 7 5.4-3.0
2018-Jan-21 11:00 080 5 5.4-3.0
2018-Jan-21 10:30 070 5 5.4-3.0
2018-Jan-21 10:00 070 7 5.4-4.0
2018-Jan-21 09:30 070 5 5.4-4.0
2018-Jan-21 09:00 080 5 5.4-4.0
2018-Jan-21 08:30 060 7 5.4-4.0
2018-Jan-21 08:00 060 7 5.4-3.0
2018-Jan-21 07:30 090 9 5.4-3.0
2018-Jan-21 07:00 090 9 5.4-3.0
2018-Jan-21 06:30 100 9 5.4-3.0
2018-Jan-21 06:00 100 11 5.4-3.0
2018-Jan-21 05:30 100 7 5.4-2.0
2018-Jan-21 05:00 100 11 5.4-2.0
2018-Jan-21 04:30 100 11 5.4-2.0
2018-Jan-21 04:00 100 11 5.4-3.0
2018-Jan-21 03:30 090 11 5.4-3.0
2018-Jan-21 03:00 100 11 5.4-3.0
2018-Jan-21 02:30 080 9 5.4-3.0
2018-Jan-21 02:00 080 9 5.4-3.0
2018-Jan-21 01:30 070 9 5.4-4.0
2018-Jan-21 01:00 080 9 5.4-4.0
2018-Jan-21 00:30 070 7 5.4-4.0
2018-Jan-21 00:00 070 7 5.4-4.0
2018-Jan-20 23:30 070 9 5.4-5.0
2018-Jan-20 23:00 080 9 5.4-4.0
2018-Jan-20 22:30 080 5 5.4-5.0
2018-Jan-20 22:00 080 9 5.4-5.0
2018-Jan-20 21:30 100 7 5.4-5.0
2018-Jan-20 21:00 080 7 5.4-5.0
2018-Jan-20 20:30 060 7 5.4-5.0
2018-Jan-20 20:00 070 5 5.4-5.0
2018-Jan-20 19:30 080 7 5.4-4.0
2018-Jan-20 19:00 080 7 5.4-4.0
2018-Jan-20 18:30 080 7 5.4-4.0
2018-Jan-20 18:00 080 5 5.4-4.0
2018-Jan-20 17:30 4.3-6.0
2018-Jan-20 17:00 4.3-6.0
2018-Jan-20 16:30 4.3-5.0
2018-Jan-20 16:00 4.3-5.0
2018-Jan-20 15:30 4.3-4.0
2018-Jan-20 15:00 4.3-5.0
2018-Jan-20 14:30 280 3 5.4-6.0
2018-Jan-20 14:00 280 3 5.4-5.0
2018-Jan-20 13:30 290 3 5.4-5.0
2018-Jan-20 13:00 310 3 5.4-4.0
2018-Jan-20 12:30 330 3 5.4-3.0
2018-Jan-20 12:00 330 3 5.4-3.0
2018-Jan-20 11:30 330 3 5.4-3.0
2018-Jan-20 11:00 340 3 5.4-3.0
2018-Jan-20 10:30 5.4-2.0
2018-Jan-20 10:00 340 3 5.4-1.0
2018-Jan-20 09:30 330 3 5.4-1.0
2018-Jan-20 09:00 330 7 5.4-0.0
2018-Jan-20 08:30 330 5 5.4-0.0
2018-Jan-20 08:00 340 7 5.4-0.0
2018-Jan-20 07:30 360 5 5.4 1.0
2018-Jan-20 07:00 320 5 5.4 2.0
2018-Jan-20 06:30 330 9 5.4 2.0
2018-Jan-20 06:00 340 9 5.4 1.0